User: anonymous   Login
Location: Unspecified
(0.0000°N, 0.0000°E)
Time: 18:13:20
(UTC+00:00)
Language:

Envisat - Orbit

View from above orbital plane
View from above orbital plane
View from above satellite
View from above satellite

Ground track
Ground track

The orbit data is extracted from the following two-line orbital elements,

1 27386U 02009A   17266.22460533 -.00000004  00000-0  12499-4 0  9998
2 27386  98.2222 307.3614 0001389  84.8803 275.2561 14.37903441815164
Epoch (UTC): 23 September 2017 05:23:25
Eccentricity: 0.0001389
inclination: 98.2222°
perigee height: 764 km
apogee height: 766 km
right ascension of ascending node: 307.3614°
argument of perigee: 84.8803°
revolutions per day: 14.37903441
mean anomaly at epoch: 275.2561°
orbit number at epoch: 81516

The dashed part of the orbit path shows where the satellite is in the earth's shadow,  

DLR